This demonstration page uses our WeatherBlox Daily Observations layout. Learn more.

Left ArrowRight Arrow

39.12711, -84.51439

Hourly Observations for July 18, 2018

Temp ( °F °C ) Dew Point ( °F °C ) Humidity (%) Winds ( mph kmh ) Pressure ( in mb ) Visibility ( mi km ) Precip ( " mm )
12:53 am 00:53 Clear 72 22.2 60 15.6 66 66 VRB 3 6 30.02 1017 10 16 0.00 0.00
1:53 am 01:53 Clear 66 18.9 60 15.6 81 81 E 3 6 30.03 1017 10 16 0.00 0.00
2:53 am 02:53 Clear 65 18.3 61 16.1 87 87 ENE 3 6 30.03 1017 10 16 0.00 0.00
3:53 am 03:53 Clear 63 17.2 61 16.1 93 93 Calm 30.03 1017 10 16 0.00 0.00
4:53 am 04:53 Clear 63 17.2 61 16.1 93 93 Calm 30.03 1017 10 16 0.00 0.00
5:53 am 05:53 Clear 62 16.7 60 15.6 93 93 Calm 30.04 1017 10 16 0.00 0.00
6:53 am 06:53 Sunny 61 16.1 60 15.6 97 97 Calm 30.05 1018 10 16 0.00 0.00
7:53 am 07:53 Sunny 66 18.9 62 16.7 87 87 Calm 30.06 1018 10 16 0.00 0.00
8:53 am 08:53 Sunny 71 21.7 61 16.1 71 71 ENE 3 6 30.06 1018 10 16 0.00 0.00
9:53 am 09:53 Sunny 74 23.3 61 16.1 64 64 VRB 3 6 30.06 1018 10 16 0.00 0.00
10:53 am 10:53 Sunny 78 25.6 60 15.6 54 54 ESE 3 6 30.05 1018 10 16 0.00 0.00
11:53 am 11:53 Partly Cloudy 80 26.7 57 13.9 45 45 ESE 3 6 30.05 1018 10 16 0.00 0.00
12:53 pm 12:53 Partly Cloudy 82 27.8 58 14.4 44 44 VRB 3 6 30.05 1018 10 16 0.00 0.00
1:53 pm 13:53 Partly Cloudy 83 28.3 58 14.4 43 43 NE 9 15 30.03 1017 10 16 0.00 0.00
2:53 pm 14:53 Partly Cloudy 85 29.4 57 13.9 39 39 ENE 5 7 30.02 1017 10 16 0.00 0.00
3:53 pm 15:53 Mostly Cloudy 86 30 57 13.9 37 37 ENE 5 7 30.01 1016 10 16 0.00 0.00
4:53 pm 16:53 Partly Cloudy 86 30 60 15.6 42 42 E 8 13 29.99 1016 10 16 0.00 0.00
5:53 pm 17:53 Partly Cloudy 86 30 61 16.1 43 43 ENE 9 15 29.98 1015 10 16 0.00 0.00
6:53 pm 18:53 Sunny 84 28.9 60 15.6 44 44 ENE 6 9 29.98 1015 10 16 0.00 0.00
7:53 pm 19:53 Sunny 82 27.8 60 15.6 47 47 E 7 11 29.98 1015 10 16 0.00 0.00
8:53 pm 20:53 Sunny 76 24.4 61 16.1 60 60 E 3 6 29.99 1016 10 16 0.00 0.00
9:53 pm 21:53 Clear 72 22.2 63 17.2 73 73 Calm 30.00 1016 10 16 0.00 0.00
10:53 pm 22:53 Clear 68 20 62 16.7 81 81 Calm 30.02 1017 10 16 0.00 0.00
11:53 pm 23:53 Partly Cloudy 67 19.4 63 17.2 87 87 Calm 30.02 1017 10 16 0.00 0.00

Powered by AerisWeather